STARLINK-34398

Last updated on Thu Jul 03 2025 00:02:07 GMT+0000 (Coordinated Universal Time)

1 64445U 25130H 25183.58335648 -.01120569 00000+0 -79794-2 0 9998 2 64445 53.1596 179.7931 0001268 62.1141 49.1148 15.75781178 3463
UTC large
Height (km)
Speed (km/s)
/
Latitude / Longitude
Inclination (degrees)
Orbital Period (minutes)
Azimuth
Elevation
Range (km)
Doppler Factor

Next 0 passes for location: London (51.5072 / 0.1276)

Sorry there are no passes over London.